owner,sensor,date,latitude,longitude,vertical_datum,wind_speed,wind_to_direction,wind_speed_of_gust,qcFlag 
WAVCIS,ioos:station:WAVCIS:CSI09:1,2016-05-01T00:00:00Z,29.1015,-89.9782,0.0,9.3,30.0,10.3,'11111222,11111222,11111222' 
WAVCIS,ioos:station:WAVCIS:CSI09:1,2016-05-01T01:00:00Z,29.1015,-89.9782,0.0,8.38,48.0,,'11111222,11111222,99999999' 
WAVCIS,ioos:station:WAVCIS:CSI09:1,2016-05-01T02:00:00Z,29.1015,-89.9782,0.0,8.6,89.0,,'11111222,11111222,99999999' 
WAVCIS,ioos:station:WAVCIS:CSI09:1,2016-05-01T03:00:00Z,29.1015,-89.9782,0.0,10.51,122.0,,'11111222,11111222,99999999' 
WAVCIS,ioos:station:WAVCIS:CSI09:1,2016-05-01T04:00:00Z,29.1015,-89.9782,0.0,9.32,133.0,,'11111222,11111222,99999999' 
WAVCIS,ioos:station:WAVCIS:CSI09:1,2016-05-01T05:00:00Z,29.1015,-89.9782,0.0,9.04,133.0,,'11111222,11111222,99999999' 
WAVCIS,ioos:station:WAVCIS:CSI09:1,2016-05-01T06:00:00Z,29.1015,-89.9782,0.0,8.42,132.0,,'11111222,11111222,99999999' 
WAVCIS,ioos:station:WAVCIS:CSI09:1,2016-05-01T07:00:00Z,29.1015,-89.9782,0.0,7.95,136.0,,'11111222,11111222,99999999' 
WAVCIS,ioos:station:WAVCIS:CSI09:1,2016-05-01T08:00:00Z,29.1015,-89.9782,0.0,7.19,140.0,,'11111222,11111222,99999999' 
WAVCIS,ioos:station:WAVCIS:CSI09:1,2016-05-01T09:00:00Z,29.1015,-89.9782,0.0,7.83,144.0,,'11111222,11111222,99999999' 
WAVCIS,ioos:station:WAVCIS:CSI09:1,2016-05-01T10:00:00Z,29.1015,-89.9782,0.0,7.56,142.0,,'11111222,11111222,99999999' 
WAVCIS,ioos:station:WAVCIS:CSI09:1,2016-05-01T11:00:00Z,29.1015,-89.9782,0.0,7.99,146.0,,'11111222,11111222,99999999' 
WAVCIS,ioos:station:WAVCIS:CSI09:1,2016-05-01T12:00:00Z,29.1015,-89.9782,0.0,6.224,138.0,,'11111222,11111222,99999999' 
WAVCIS,ioos:station:WAVCIS:CSI09:1,2016-05-01T13:00:00Z,29.1015,-89.9782,0.0,6.11,137.0,,'11111222,11111222,99999999' 
WAVCIS,ioos:station:WAVCIS:CSI09:1,2016-05-01T14:00:00Z,29.1015,-89.9782,0.0,6.723,134.0,,'11111222,11111222,99999999' 
WAVCIS,ioos:station:WAVCIS:CSI09:1,2016-05-01T15:00:00Z,29.1015,-89.9782,0.0,8.03,139.0,,'11111222,11111222,99999999' 
WAVCIS,ioos:station:WAVCIS:CSI09:1,2016-05-01T16:00:00Z,29.1015,-89.9782,0.0,8.29,139.0,,'11111222,11111222,99999999' 
WAVCIS,ioos:station:WAVCIS:CSI09:1,2016-05-01T17:00:00Z,29.1015,-89.9782,0.0,8.23,137.0,,'11111222,11111222,99999999' 
WAVCIS,ioos:station:WAVCIS:CSI09:1,2016-05-01T18:00:00Z,29.1015,-89.9782,0.0,6.825,129.0,,'11111222,11111222,99999999' 
WAVCIS,ioos:station:WAVCIS:CSI09:1,2016-05-01T19:00:00Z,29.1015,-89.9782,0.0,4.19,92.0,,'11111222,11111222,99999999' 
WAVCIS,ioos:station:WAVCIS:CSI09:1,2016-05-01T20:00:00Z,29.1015,-89.9782,0.0,7.51,72.0,,'11111222,11111222,99999999' 
WAVCIS,ioos:station:WAVCIS:CSI09:1,2016-05-01T21:00:00Z,29.1015,-89.9782,0.0,17.58,9.0,,'11111222,11111222,99999999' 
WAVCIS,ioos:station:WAVCIS:CSI09:1,2016-05-01T22:00:00Z,29.1015,-89.9782,0.0,14.49,19.0,,'11111222,11111222,99999999' 
WAVCIS,ioos:station:WAVCIS:CSI09:1,2016-05-01T23:00:00Z,29.1015,-89.9782,0.0,14.15,30.0,,'11111222,11111222,99999999' 
WAVCIS,ioos:station:WAVCIS:CSI09:1,2016-05-02T00:00:00Z,29.1015,-89.9782,0.0,13.9,36.0,,'11111222,11111222,99999999' 
WAVCIS,ioos:station:WAVCIS:CSI09:1,2016-05-02T01:00:00Z,29.1015,-89.9782,0.0,9.0,41.0,,'11111222,11111222,99999999' 
WAVCIS,ioos:station:WAVCIS:CSI09:1,2016-05-02T02:00:00Z,29.1015,-89.9782,0.0,6.606,46.0,,'11111222,11111222,99999999' 
WAVCIS,ioos:station:WAVCIS:CSI09:1,2016-05-02T03:00:00Z,29.1015,-89.9782,0.0,8.52,85.0,,'11111222,11111222,99999999' 
WAVCIS,ioos:station:WAVCIS:CSI09:1,2016-05-02T04:00:00Z,29.1015,-89.9782,0.0,10.77,130.0,,'11111222,11111222,99999999' 
WAVCIS,ioos:station:WAVCIS:CSI09:1,2016-05-02T05:00:00Z,29.1015,-89.9782,0.0,11.85,134.0,,'11111222,11111222,99999999' 
WAVCIS,ioos:station:WAVCIS:CSI09:1,2016-05-02T06:00:00Z,29.1015,-89.9782,0.0,14.51,156.0,,'11111222,11111222,99999999' 
WAVCIS,ioos:station:WAVCIS:CSI09:1,2016-05-02T07:00:00Z,29.1015,-89.9782,0.0,14.66,156.0,,'11111222,11111222,99999999' 
WAVCIS,ioos:station:WAVCIS:CSI09:1,2016-05-02T08:00:00Z,29.1015,-89.9782,0.0,12.1,155.0,,'11111222,11111222,99999999' 
WAVCIS,ioos:station:WAVCIS:CSI09:1,2016-05-02T09:00:00Z,29.1015,-89.9782,0.0,8.56,171.0,,'11111222,11111222,99999999' 
WAVCIS,ioos:station:WAVCIS:CSI09:1,2016-05-02T10:00:00Z,29.1015,-89.9782,0.0,6.418,172.0,,'11111222,11111222,99999999' 
WAVCIS,ioos:station:WAVCIS:CSI09:1,2016-05-02T11:00:00Z,29.1015,-89.9782,0.0,5.132,152.0,,'11111222,11111222,99999999' 
WAVCIS,ioos:station:WAVCIS:CSI09:1,2016-05-02T12:00:00Z,29.1015,-89.9782,0.0,3.685,34.0,,'11111222,11111222,99999999' 
WAVCIS,ioos:station:WAVCIS:CSI09:1,2016-05-02T13:00:00Z,29.1015,-89.9782,0.0,3.516,52.0,,'11111222,11111222,99999999' 
WAVCIS,ioos:station:WAVCIS:CSI09:1,2016-05-02T14:00:00Z,29.1015,-89.9782,0.0,4.631,61.0,,'11111222,11111222,99999999' 
WAVCIS,ioos:station:WAVCIS:CSI09:1,2016-05-02T15:00:00Z,29.1015,-89.9782,0.0,3.895,84.0,,'11111222,11111222,99999999' 
WAVCIS,ioos:station:WAVCIS:CSI09:1,2016-05-02T16:00:00Z,29.1015,-89.9782,0.0,3.504,90.0,,'11111222,11111222,99999999' 
WAVCIS,ioos:station:WAVCIS:CSI09:1,2016-05-02T17:00:00Z,29.1015,-89.9782,0.0,3.143,65.0,,'11111222,11111222,99999999' 
WAVCIS,ioos:station:WAVCIS:CSI09:1,2016-05-02T18:00:00Z,29.1015,-89.9782,0.0,2.875,80.0,,'11111222,11111222,99999999' 
WAVCIS,ioos:station:WAVCIS:CSI09:1,2016-05-02T19:00:00Z,29.1015,-89.9782,0.0,3.172,88.0,,'11111222,11111222,99999999' 
WAVCIS,ioos:station:WAVCIS:CSI09:1,2016-05-02T20:00:00Z,29.1015,-89.9782,0.0,2.998,97.0,,'11111222,11111222,99999999' 
WAVCIS,ioos:station:WAVCIS:CSI09:1,2016-05-02T21:00:00Z,29.1015,-89.9782,0.0,1.511,157.0,,'11111222,11111222,99999999' 
WAVCIS,ioos:station:WAVCIS:CSI09:1,2016-05-03T09:00:00Z,29.1015,-89.9782,0.0,1.0,10.0,1.0,'11111222,11111222,11111222' 
WAVCIS,ioos:station:WAVCIS:CSI09:1,2016-05-04T13:00:00Z,29.1015,-89.9782,0.0,12.9,360.0,14.9,'11111222,11144222,11111222' 
WAVCIS,ioos:station:WAVCIS:CSI09:1,2016-05-04T14:00:00Z,29.1015,-89.9782,0.0,11.44,9.0,,'11111222,11111222,99999999' 
WAVCIS,ioos:station:WAVCIS:CSI09:1,2016-05-04T15:00:00Z,29.1015,-89.9782,0.0,10.41,5.0,,'11111222,11111222,99999999' 
WAVCIS,ioos:station:WAVCIS:CSI09:1,2016-05-04T16:00:00Z,29.1015,-89.9782,0.0,8.88,359.0,,'11111222,11111222,99999999' 
WAVCIS,ioos:station:WAVCIS:CSI09:1,2016-05-04T17:00:00Z,29.1015,-89.9782,0.0,8.48,354.0,,'11111222,11111222,99999999' 
WAVCIS,ioos:station:WAVCIS:CSI09:1,2016-05-04T18:00:00Z,29.1015,-89.9782,0.0,9.02,355.0,,'11111222,11111222,99999999' 
WAVCIS,ioos:station:WAVCIS:CSI09:1,2016-05-04T19:00:00Z,29.1015,-89.9782,0.0,7.05,339.0,,'11111222,11111222,99999999' 
WAVCIS,ioos:station:WAVCIS:CSI09:1,2016-05-04T20:00:00Z,29.1015,-89.9782,0.0,8.91,334.0,,'11111222,11111222,99999999' 
WAVCIS,ioos:station:WAVCIS:CSI09:1,2016-05-04T21:00:00Z,29.1015,-89.9782,0.0,7.08,331.0,,'11111222,11111222,99999999' 
WAVCIS,ioos:station:WAVCIS:CSI09:1,2016-05-04T22:00:00Z,29.1015,-89.9782,0.0,5.354,340.0,,'11111222,11111222,99999999' 
WAVCIS,ioos:station:WAVCIS:CSI09:1,2016-05-04T23:00:00Z,29.1015,-89.9782,0.0,7.02,325.0,,'11111222,11111222,99999999' 
WAVCIS,ioos:station:WAVCIS:CSI09:1,2016-05-05T00:00:00Z,29.1015,-89.9782,0.0,8.1,305.0,,'11111222,11111222,99999999' 
WAVCIS,ioos:station:WAVCIS:CSI09:1,2016-05-05T01:00:00Z,29.1015,-89.9782,0.0,8.37,312.0,,'11111222,11111222,99999999' 
WAVCIS,ioos:station:WAVCIS:CSI09:1,2016-05-05T02:00:00Z,29.1015,-89.9782,0.0,7.57,306.0,,'11111222,11111222,99999999' 
WAVCIS,ioos:station:WAVCIS:CSI09:1,2016-05-05T03:00:00Z,29.1015,-89.9782,0.0,7.8,310.0,,'11111222,11111222,99999999' 
WAVCIS,ioos:station:WAVCIS:CSI09:1,2016-05-05T04:00:00Z,29.1015,-89.9782,0.0,6.903,311.0,,'11111222,11111222,99999999' 
WAVCIS,ioos:station:WAVCIS:CSI09:1,2016-05-05T05:00:00Z,29.1015,-89.9782,0.0,5.393,290.0,,'11111222,11111222,99999999' 
WAVCIS,ioos:station:WAVCIS:CSI09:1,2016-05-05T06:00:00Z,29.1015,-89.9782,0.0,6.839,276.0,,'11111222,11111222,99999999' 
WAVCIS,ioos:station:WAVCIS:CSI09:1,2016-05-05T07:00:00Z,29.1015,-89.9782,0.0,7.17,277.0,,'11111222,11111222,99999999' 
WAVCIS,ioos:station:WAVCIS:CSI09:1,2016-05-05T08:00:00Z,29.1015,-89.9782,0.0,7.57,275.0,,'11111222,11111222,99999999' 
WAVCIS,ioos:station:WAVCIS:CSI09:1,2016-05-05T09:00:00Z,29.1015,-89.9782,0.0,7.6,278.0,,'11111222,11111222,99999999' 
WAVCIS,ioos:station:WAVCIS:CSI09:1,2016-05-05T10:00:00Z,29.1015,-89.9782,0.0,9.3,269.0,,'11111222,11111222,99999999' 
WAVCIS,ioos:station:WAVCIS:CSI09:1,2016-05-05T11:00:00Z,29.1015,-89.9782,0.0,10.18,277.0,,'11111222,11111222,99999999' 
WAVCIS,ioos:station:WAVCIS:CSI09:1,2016-05-05T12:00:00Z,29.1015,-89.9782,0.0,9.43,290.0,,'11111222,11111222,99999999' 
WAVCIS,ioos:station:WAVCIS:CSI09:1,2016-05-05T13:00:00Z,29.1015,-89.9782,0.0,8.72,309.0,,'11111222,11111222,99999999' 
WAVCIS,ioos:station:WAVCIS:CSI09:1,2016-05-05T14:00:00Z,29.1015,-89.9782,0.0,7.9,321.0,,'11111222,11111222,99999999' 
WAVCIS,ioos:station:WAVCIS:CSI09:1,2016-05-05T15:00:00Z,29.1015,-89.9782,0.0,6.937,325.0,,'11111222,11111222,99999999' 
WAVCIS,ioos:station:WAVCIS:CSI09:1,2016-05-05T16:00:00Z,29.1015,-89.9782,0.0,6.928,330.0,,'11111222,11111222,99999999' 
WAVCIS,ioos:station:WAVCIS:CSI09:1,2016-05-05T17:00:00Z,29.1015,-89.9782,0.0,5.482,344.0,,'11111222,11111222,99999999' 
WAVCIS,ioos:station:WAVCIS:CSI09:1,2016-05-05T18:00:00Z,29.1015,-89.9782,0.0,4.62,8.0,,'11111222,11111222,99999999' 
WAVCIS,ioos:station:WAVCIS:CSI09:1,2016-05-05T19:00:00Z,29.1015,-89.9782,0.0,3.851,347.0,,'11111222,11111222,99999999' 
WAVCIS,ioos:station:WAVCIS:CSI09:1,2016-05-05T20:00:00Z,29.1015,-89.9782,0.0,5.281,346.0,,'11111222,11111222,99999999' 
WAVCIS,ioos:station:WAVCIS:CSI09:1,2016-05-05T21:00:00Z,29.1015,-89.9782,0.0,4.194,352.0,,'11111222,11111222,99999999' 
WAVCIS,ioos:station:WAVCIS:CSI09:1,2016-05-05T22:00:00Z,29.1015,-89.9782,0.0,2.967,357.0,,'11111222,11111222,99999999' 
WAVCIS,ioos:station:WAVCIS:CSI09:1,2016-05-05T23:00:00Z,29.1015,-89.9782,0.0,3.384,352.0,,'11111222,11111222,99999999' 
WAVCIS,ioos:station:WAVCIS:CSI09:1,2016-05-06T00:00:00Z,29.1015,-89.9782,0.0,4.828,348.0,,'11111222,11111222,99999999' 
WAVCIS,ioos:station:WAVCIS:CSI09:1,2016-05-06T01:00:00Z,29.1015,-89.9782,0.0,7.43,353.0,,'11111222,11111222,99999999' 
WAVCIS,ioos:station:WAVCIS:CSI09:1,2016-05-06T02:00:00Z,29.1015,-89.9782,0.0,7.45,351.0,,'11111222,11111222,99999999' 
WAVCIS,ioos:station:WAVCIS:CSI09:1,2016-05-06T03:00:00Z,29.1015,-89.9782,0.0,8.26,336.0,,'11111222,11111222,99999999' 
WAVCIS,ioos:station:WAVCIS:CSI09:1,2016-05-06T04:00:00Z,29.1015,-89.9782,0.0,8.98,342.0,,'11111222,11111222,99999999' 
WAVCIS,ioos:station:WAVCIS:CSI09:1,2016-05-06T05:00:00Z,29.1015,-89.9782,0.0,11.67,356.0,,'11111222,11111222,99999999' 
WAVCIS,ioos:station:WAVCIS:CSI09:1,2016-05-06T06:00:00Z,29.1015,-89.9782,0.0,11.28,4.0,,'11111222,11111222,99999999' 
WAVCIS,ioos:station:WAVCIS:CSI09:1,2016-05-06T07:00:00Z,29.1015,-89.9782,0.0,9.9,5.0,,'11111222,11111222,99999999' 
WAVCIS,ioos:station:WAVCIS:CSI09:1,2016-05-06T08:00:00Z,29.1015,-89.9782,0.0,9.91,3.0,,'11111222,11111222,99999999' 
WAVCIS,ioos:station:WAVCIS:CSI09:1,2016-05-06T09:00:00Z,29.1015,-89.9782,0.0,9.11,28.0,,'11111222,11111222,99999999' 
WAVCIS,ioos:station:WAVCIS:CSI09:1,2016-05-06T10:00:00Z,29.1015,-89.9782,0.0,10.27,32.0,,'11111222,11111222,99999999' 
WAVCIS,ioos:station:WAVCIS:CSI09:1,2016-05-06T11:00:00Z,29.1015,-89.9782,0.0,9.4,30.0,,'11111222,11111222,99999999' 
WAVCIS,ioos:station:WAVCIS:CSI09:1,2016-05-06T12:00:00Z,29.1015,-89.9782,0.0,8.19,39.0,,'11111222,11111222,99999999' 
WAVCIS,ioos:station:WAVCIS:CSI09:1,2016-05-06T13:00:00Z,29.1015,-89.9782,0.0,7.31,42.0,,'11111222,11111222,99999999' 
WAVCIS,ioos:station:WAVCIS:CSI09:1,2016-05-06T14:00:00Z,29.1015,-89.9782,0.0,7.49,34.0,,'11111222,11111222,99999999' 
WAVCIS,ioos:station:WAVCIS:CSI09:1,2016-05-06T15:00:00Z,29.1015,-89.9782,0.0,6.304,25.0,,'11111222,11111222,99999999' 
WAVCIS,ioos:station:WAVCIS:CSI09:1,2016-05-06T16:00:00Z,29.1015,-89.9782,0.0,8.17,6.0,,'11111222,11111222,99999999' 
WAVCIS,ioos:station:WAVCIS:CSI09:1,2016-05-06T17:00:00Z,29.1015,-89.9782,0.0,6.919,6.0,,'11111222,11111222,99999999' 
WAVCIS,ioos:station:WAVCIS:CSI09:1,2016-05-06T18:00:00Z,29.1015,-89.9782,0.0,7.1,14.0,,'11111222,11111222,99999999' 
WAVCIS,ioos:station:WAVCIS:CSI09:1,2016-05-06T19:00:00Z,29.1015,-89.9782,0.0,6.325,348.0,,'11111222,11111222,99999999' 
WAVCIS,ioos:station:WAVCIS:CSI09:1,2016-05-06T20:00:00Z,29.1015,-89.9782,0.0,7.15,347.0,,'11111222,11111222,99999999' 
WAVCIS,ioos:station:WAVCIS:CSI09:1,2016-05-06T21:00:00Z,29.1015,-89.9782,0.0,6.955,350.0,,'11111222,11111222,99999999' 
WAVCIS,ioos:station:WAVCIS:CSI09:1,2016-05-06T22:00:00Z,29.1015,-89.9782,0.0,5.993,2.0,,'11111222,11111222,99999999' 
WAVCIS,ioos:station:WAVCIS:CSI09:1,2016-05-06T23:00:00Z,29.1015,-89.9782,0.0,6.483,21.0,,'11111222,11111222,99999999' 
WAVCIS,ioos:station:WAVCIS:CSI09:1,2016-05-07T00:00:00Z,29.1015,-89.9782,0.0,5.208,22.0,,'11111222,11111222,99999999' 
WAVCIS,ioos:station:WAVCIS:CSI09:1,2016-05-07T01:00:00Z,29.1015,-89.9782,0.0,6.399,17.0,,'11111222,11111222,99999999' 
WAVCIS,ioos:station:WAVCIS:CSI09:1,2016-05-07T02:00:00Z,29.1015,-89.9782,0.0,6.019,6.0,,'11111222,11111222,99999999' 
WAVCIS,ioos:station:WAVCIS:CSI09:1,2016-05-07T03:00:00Z,29.1015,-89.9782,0.0,4.959,8.0,,'11111222,11111222,99999999' 
WAVCIS,ioos:station:WAVCIS:CSI09:1,2016-05-07T04:00:00Z,29.1015,-89.9782,0.0,4.961,18.0,,'11111222,11111222,99999999' 
WAVCIS,ioos:station:WAVCIS:CSI09:1,2016-05-07T05:00:00Z,29.1015,-89.9782,0.0,3.548,17.0,,'11111222,11111222,99999999' 
WAVCIS,ioos:station:WAVCIS:CSI09:1,2016-05-07T06:00:00Z,29.1015,-89.9782,0.0,2.295,8.0,,'11111222,11111222,99999999' 
WAVCIS,ioos:station:WAVCIS:CSI09:1,2016-05-07T07:00:00Z,29.1015,-89.9782,0.0,2.623,28.0,,'11111222,11111222,99999999' 
WAVCIS,ioos:station:WAVCIS:CSI09:1,2016-05-07T08:00:00Z,29.1015,-89.9782,0.0,2.291,26.0,,'11111222,11111222,99999999' 
WAVCIS,ioos:station:WAVCIS:CSI09:1,2016-05-07T09:00:00Z,29.1015,-89.9782,0.0,1.894,15.0,,'11111222,11111222,99999999' 
WAVCIS,ioos:station:WAVCIS:CSI09:1,2016-05-07T10:00:00Z,29.1015,-89.9782,0.0,2.605,35.0,,'11111222,11111222,99999999' 
WAVCIS,ioos:station:WAVCIS:CSI09:1,2016-05-07T11:00:00Z,29.1015,-89.9782,0.0,3.286,42.0,,'11111222,11111222,99999999' 
WAVCIS,ioos:station:WAVCIS:CSI09:1,2016-05-07T12:00:00Z,29.1015,-89.9782,0.0,4.057,41.0,,'11111222,11111222,99999999' 
WAVCIS,ioos:station:WAVCIS:CSI09:1,2016-05-07T13:00:00Z,29.1015,-89.9782,0.0,3.328,55.0,,'11111222,11111222,99999999' 
WAVCIS,ioos:station:WAVCIS:CSI09:1,2016-05-07T14:00:00Z,29.1015,-89.9782,0.0,2.902,68.0,,'11111222,11111222,99999999' 
WAVCIS,ioos:station:WAVCIS:CSI09:1,2016-05-07T15:00:00Z,29.1015,-89.9782,0.0,2.824,82.0,,'11111222,11111222,99999999' 
WAVCIS,ioos:station:WAVCIS:CSI09:1,2016-05-07T16:00:00Z,29.1015,-89.9782,0.0,2.379,84.0,,'11111222,11111222,99999999' 
WAVCIS,ioos:station:WAVCIS:CSI09:1,2016-05-07T17:00:00Z,29.1015,-89.9782,0.0,1.913,112.0,,'11111222,11111222,99999999' 
WAVCIS,ioos:station:WAVCIS:CSI09:1,2016-05-07T18:00:00Z,29.1015,-89.9782,0.0,1.088,105.0,,'11111222,11111222,99999999' 
WAVCIS,ioos:station:WAVCIS:CSI09:1,2016-05-07T19:00:00Z,29.1015,-89.9782,0.0,1.425,117.0,,'11111222,11111222,99999999' 
WAVCIS,ioos:station:WAVCIS:CSI09:1,2016-05-07T20:00:00Z,29.1015,-89.9782,0.0,1.157,115.0,,'11111222,11111222,99999999' 
WAVCIS,ioos:station:WAVCIS:CSI09:1,2016-05-07T21:00:00Z,29.1015,-89.9782,0.0,1.33,141.0,,'11111222,11111222,99999999' 
WAVCIS,ioos:station:WAVCIS:CSI09:1,2016-05-07T22:00:00Z,29.1015,-89.9782,0.0,1.465,157.0,,'11111222,11111222,99999999' 
WAVCIS,ioos:station:WAVCIS:CSI09:1,2016-05-07T23:00:00Z,29.1015,-89.9782,0.0,1.648,162.0,,'11111222,11111222,99999999' 
WAVCIS,ioos:station:WAVCIS:CSI09:1,2016-05-08T00:00:00Z,29.1015,-89.9782,0.0,2.382,169.0,,'11111222,11111222,99999999' 
WAVCIS,ioos:station:WAVCIS:CSI09:1,2016-05-08T01:00:00Z,29.1015,-89.9782,0.0,1.531,169.0,,'11111222,11111222,99999999' 
WAVCIS,ioos:station:WAVCIS:CSI09:1,2016-05-08T02:00:00Z,29.1015,-89.9782,0.0,3.031,216.0,,'11111222,11111222,99999999' 
WAVCIS,ioos:station:WAVCIS:CSI09:1,2016-05-08T03:00:00Z,29.1015,-89.9782,0.0,2.777,222.0,,'11111222,11111222,99999999' 
WAVCIS,ioos:station:WAVCIS:CSI09:1,2016-05-08T04:00:00Z,29.1015,-89.9782,0.0,3.796,227.0,,'11111222,11111222,99999999' 
WAVCIS,ioos:station:WAVCIS:CSI09:1,2016-05-08T05:00:00Z,29.1015,-89.9782,0.0,3.267,212.0,,'11111222,11111222,99999999' 
WAVCIS,ioos:station:WAVCIS:CSI09:1,2016-05-08T06:00:00Z,29.1015,-89.9782,0.0,3.165,185.0,,'11111222,11111222,99999999' 
WAVCIS,ioos:station:WAVCIS:CSI09:1,2016-05-08T07:00:00Z,29.1015,-89.9782,0.0,3.508,179.0,,'11111222,11111222,99999999' 
WAVCIS,ioos:station:WAVCIS:CSI09:1,2016-05-08T08:00:00Z,29.1015,-89.9782,0.0,4.003,168.0,,'11111222,11111222,99999999' 
WAVCIS,ioos:station:WAVCIS:CSI09:1,2016-05-08T09:00:00Z,29.1015,-89.9782,0.0,2.822,181.0,,'11111222,11111222,99999999' 
WAVCIS,ioos:station:WAVCIS:CSI09:1,2016-05-08T10:00:00Z,29.1015,-89.9782,0.0,2.712,159.0,,'11111222,11111222,99999999' 
WAVCIS,ioos:station:WAVCIS:CSI09:1,2016-05-08T11:00:00Z,29.1015,-89.9782,0.0,2.955,160.0,,'11111222,11111222,99999999' 
WAVCIS,ioos:station:WAVCIS:CSI09:1,2016-05-08T12:00:00Z,29.1015,-89.9782,0.0,2.22,197.0,,'11111222,11111222,99999999' 
WAVCIS,ioos:station:WAVCIS:CSI09:1,2016-05-08T13:00:00Z,29.1015,-89.9782,0.0,3.042,153.0,,'11111222,11111222,99999999' 
WAVCIS,ioos:station:WAVCIS:CSI09:1,2016-05-08T14:00:00Z,29.1015,-89.9782,0.0,3.512,162.0,,'11111222,11111222,99999999' 
WAVCIS,ioos:station:WAVCIS:CSI09:1,2016-05-08T15:00:00Z,29.1015,-89.9782,0.0,3.83,164.0,,'11111222,11111222,99999999' 
WAVCIS,ioos:station:WAVCIS:CSI09:1,2016-05-08T16:00:00Z,29.1015,-89.9782,0.0,5.435,172.0,,'11111222,11111222,99999999' 
WAVCIS,ioos:station:WAVCIS:CSI09:1,2016-05-08T17:00:00Z,29.1015,-89.9782,0.0,4.747,170.0,,'11111222,11111222,99999999' 
WAVCIS,ioos:station:WAVCIS:CSI09:1,2016-05-08T18:00:00Z,29.1015,-89.9782,0.0,4.259,157.0,,'11111222,11111222,99999999' 
WAVCIS,ioos:station:WAVCIS:CSI09:1,2016-05-08T19:00:00Z,29.1015,-89.9782,0.0,3.919,153.0,,'11111222,11111222,99999999' 
WAVCIS,ioos:station:WAVCIS:CSI09:1,2016-05-08T20:00:00Z,29.1015,-89.9782,0.0,3.668,147.0,,'11111222,11111222,99999999' 
WAVCIS,ioos:station:WAVCIS:CSI09:1,2016-05-08T21:00:00Z,29.1015,-89.9782,0.0,5.56,152.0,,'11111222,11111222,99999999' 
WAVCIS,ioos:station:WAVCIS:CSI09:1,2016-05-08T22:00:00Z,29.1015,-89.9782,0.0,4.746,166.0,,'11111222,11111222,99999999' 
WAVCIS,ioos:station:WAVCIS:CSI09:1,2016-05-08T23:00:00Z,29.1015,-89.9782,0.0,4.61,161.0,,'11111222,11111222,99999999' 
WAVCIS,ioos:station:WAVCIS:CSI09:1,2016-05-09T00:00:00Z,29.1015,-89.9782,0.0,3.603,157.0,,'11111222,11111222,99999999' 
WAVCIS,ioos:station:WAVCIS:CSI09:1,2016-05-09T01:00:00Z,29.1015,-89.9782,0.0,4.145,134.0,,'11111222,11111222,99999999' 
WAVCIS,ioos:station:WAVCIS:CSI09:1,2016-05-09T02:00:00Z,29.1015,-89.9782,0.0,5.351,136.0,,'11111222,11111222,99999999' 
WAVCIS,ioos:station:WAVCIS:CSI09:1,2016-05-09T03:00:00Z,29.1015,-89.9782,0.0,6.523,131.0,,'11111222,11111222,99999999' 
WAVCIS,ioos:station:WAVCIS:CSI09:1,2016-05-09T04:00:00Z,29.1015,-89.9782,0.0,7.69,130.0,,'11111222,11111222,99999999' 
WAVCIS,ioos:station:WAVCIS:CSI09:1,2016-05-09T05:00:00Z,29.1015,-89.9782,0.0,8.92,133.0,,'11111222,11111222,99999999' 
WAVCIS,ioos:station:WAVCIS:CSI09:1,2016-05-09T06:00:00Z,29.1015,-89.9782,0.0,10.9,135.0,,'11111222,11111222,99999999' 
WAVCIS,ioos:station:WAVCIS:CSI09:1,2016-05-09T07:00:00Z,29.1015,-89.9782,0.0,9.18,162.0,,'11111222,11111222,99999999' 
WAVCIS,ioos:station:WAVCIS:CSI09:1,2016-05-09T08:00:00Z,29.1015,-89.9782,0.0,8.44,170.0,,'11111222,11111222,99999999' 
WAVCIS,ioos:station:WAVCIS:CSI09:1,2016-05-09T09:00:00Z,29.1015,-89.9782,0.0,10.15,170.0,,'11111222,11111222,99999999' 
WAVCIS,ioos:station:WAVCIS:CSI09:1,2016-05-09T10:00:00Z,29.1015,-89.9782,0.0,7.91,172.0,,'11111222,11111222,99999999' 
WAVCIS,ioos:station:WAVCIS:CSI09:1,2016-05-09T11:00:00Z,29.1015,-89.9782,0.0,7.96,177.0,,'11111222,11111222,99999999' 
WAVCIS,ioos:station:WAVCIS:CSI09:1,2016-05-09T12:00:00Z,29.1015,-89.9782,0.0,7.78,179.0,,'11111222,11111222,99999999' 
WAVCIS,ioos:station:WAVCIS:CSI09:1,2016-05-09T13:00:00Z,29.1015,-89.9782,0.0,6.245,173.0,,'11111222,11111222,99999999' 
WAVCIS,ioos:station:WAVCIS:CSI09:1,2016-05-09T14:00:00Z,29.1015,-89.9782,0.0,5.602,160.0,,'11111222,11111222,99999999' 
WAVCIS,ioos:station:WAVCIS:CSI09:1,2016-05-09T15:00:00Z,29.1015,-89.9782,0.0,7.02,151.0,,'11111222,11111222,99999999' 
WAVCIS,ioos:station:WAVCIS:CSI09:1,2016-05-09T16:00:00Z,29.1015,-89.9782,0.0,9.49,153.0,,'11111222,11111222,99999999' 
WAVCIS,ioos:station:WAVCIS:CSI09:1,2016-05-09T17:00:00Z,29.1015,-89.9782,0.0,8.89,155.0,,'11111222,11111222,99999999' 
WAVCIS,ioos:station:WAVCIS:CSI09:1,2016-05-09T18:00:00Z,29.1015,-89.9782,0.0,9.28,157.0,,'11111222,11111222,99999999' 
WAVCIS,ioos:station:WAVCIS:CSI09:1,2016-05-09T19:00:00Z,29.1015,-89.9782,0.0,8.1,161.0,,'11111222,11111222,99999999' 
WAVCIS,ioos:station:WAVCIS:CSI09:1,2016-05-09T20:00:00Z,29.1015,-89.9782,0.0,8.48,168.0,,'11111222,11111222,99999999' 
WAVCIS,ioos:station:WAVCIS:CSI09:1,2016-05-09T21:00:00Z,29.1015,-89.9782,0.0,9.47,149.0,,'11111222,11111222,99999999' 
WAVCIS,ioos:station:WAVCIS:CSI09:1,2016-05-09T22:00:00Z,29.1015,-89.9782,0.0,9.43,156.0,,'11111222,11111222,99999999' 
WAVCIS,ioos:station:WAVCIS:CSI09:1,2016-05-09T23:00:00Z,29.1015,-89.9782,0.0,10.73,161.0,,'11111222,11111222,99999999' 
WAVCIS,ioos:station:WAVCIS:CSI09:1,2016-05-10T00:00:00Z,29.1015,-89.9782,0.0,8.15,170.0,,'11111222,11111222,99999999' 
WAVCIS,ioos:station:WAVCIS:CSI09:1,2016-05-10T01:00:00Z,29.1015,-89.9782,0.0,6.404,167.0,,'11111222,11111222,99999999' 
WAVCIS,ioos:station:WAVCIS:CSI09:1,2016-05-10T02:00:00Z,29.1015,-89.9782,0.0,6.365,162.0,,'11111222,11111222,99999999' 
WAVCIS,ioos:station:WAVCIS:CSI09:1,2016-05-10T03:00:00Z,29.1015,-89.9782,0.0,4.346,162.0,,'11111222,11111222,99999999' 
WAVCIS,ioos:station:WAVCIS:CSI09:1,2016-05-10T04:00:00Z,29.1015,-89.9782,0.0,5.416,159.0,,'11111222,11111222,99999999' 
WAVCIS,ioos:station:WAVCIS:CSI09:1,2016-05-10T05:00:00Z,29.1015,-89.9782,0.0,5.753,162.0,,'11111222,11111222,99999999' 
WAVCIS,ioos:station:WAVCIS:CSI09:1,2016-05-10T06:00:00Z,29.1015,-89.9782,0.0,5.56,160.0,,'11111222,11111222,99999999' 
WAVCIS,ioos:station:WAVCIS:CSI09:1,2016-05-10T07:00:00Z,29.1015,-89.9782,0.0,4.772,162.0,,'11111222,11111222,99999999' 
WAVCIS,ioos:station:WAVCIS:CSI09:1,2016-05-10T08:00:00Z,29.1015,-89.9782,0.0,4.716,159.0,,'11111222,11111222,99999999' 
WAVCIS,ioos:station:WAVCIS:CSI09:1,2016-05-10T09:00:00Z,29.1015,-89.9782,0.0,3.992,151.0,,'11111222,11111222,99999999' 
WAVCIS,ioos:station:WAVCIS:CSI09:1,2016-05-10T10:00:00Z,29.1015,-89.9782,0.0,4.838,151.0,,'11111222,11111222,99999999' 
WAVCIS,ioos:station:WAVCIS:CSI09:1,2016-05-10T11:00:00Z,29.1015,-89.9782,0.0,4.99,139.0,,'11111222,11111222,99999999' 
WAVCIS,ioos:station:WAVCIS:CSI09:1,2016-05-10T12:00:00Z,29.1015,-89.9782,0.0,5.25,140.0,,'11111222,11111222,99999999' 
WAVCIS,ioos:station:WAVCIS:CSI09:1,2016-05-10T13:00:00Z,29.1015,-89.9782,0.0,5.971,134.0,,'11111222,11111222,99999999' 
WAVCIS,ioos:station:WAVCIS:CSI09:1,2016-05-10T14:00:00Z,29.1015,-89.9782,0.0,5.484,141.0,,'11111222,11111222,99999999' 
WAVCIS,ioos:station:WAVCIS:CSI09:1,2016-05-10T15:00:00Z,29.1015,-89.9782,0.0,5.661,145.0,,'11111222,11111222,99999999' 
WAVCIS,ioos:station:WAVCIS:CSI09:1,2016-05-10T16:00:00Z,29.1015,-89.9782,0.0,6.883,156.0,,'11111222,11111222,99999999' 
WAVCIS,ioos:station:WAVCIS:CSI09:1,2016-05-10T17:00:00Z,29.1015,-89.9782,0.0,7.5,159.0,,'11111222,11111222,99999999' 
WAVCIS,ioos:station:WAVCIS:CSI09:1,2016-05-10T18:00:00Z,29.1015,-89.9782,0.0,7.53,162.0,,'11111222,11111222,99999999' 
WAVCIS,ioos:station:WAVCIS:CSI09:1,2016-05-10T19:00:00Z,29.1015,-89.9782,0.0,7.27,162.0,,'11111222,11111222,99999999' 
WAVCIS,ioos:station:WAVCIS:CSI09:1,2016-05-10T20:00:00Z,29.1015,-89.9782,0.0,6.633,159.0,,'11111222,11111222,99999999' 
WAVCIS,ioos:station:WAVCIS:CSI09:1,2016-05-10T21:00:00Z,29.1015,-89.9782,0.0,6.227,159.0,,'11111222,11111222,99999999' 